[Date Prev][Date Next][Thread Prev][Thread Next] - [Date Index][Thread Index][Author Index]
2 Line ISS Keps 11-26
- Subject: [sarex] 2 Line ISS Keps 11-26
- From: "Dave Larsen PhD" <doc@xxxxxxxxxxx>
- Date: Fri, 26 Nov 2004 02:02:31 -0800
ISS
1 25544U 98067A 04331.29963161 .00027253 00000-0 22025-3 0 2264
2 25544 51.6391 218.4139 0004465 48.4434 56.0705 15.70614417343785
----
Via the sarex mailing list at AMSAT.ORG courtesy of AMSAT-NA.
To unsubscribe, send "unsubscribe sarex" to Majordomo@amsat.org
AMSAT Home